Weather History for El Centro, CA

Change the Weather History Date:

Saturday, January 18, 2014

  Actual Average Record
Temperature  
Mean Temperature 62 °F -  
Max Temperature 81 °F 69 °F 84 °F (2011)
Min Temperature 43 °F 46 °F 31 °F (2007)
Degree Days  
Heating Degree Days 3    
Growing Degree Days 12 (Base 50)    
Moisture  
Dew Point 15 °F    
Average Humidity 20    
Maximum Humidity 38    
Minimum Humidity 6    
Precipitation  
Precipitation 0.00 in - - ()
Sea Level Pressure  
Sea Level Pressure 30.11 in    
Wind  
Wind Speed 6 mph (West)    
Max Wind Speed 9 mph    
Max Gust Speed -    
Visibility 10 miles    
Events      
Averages and records for this station are not official NWS values.
T = Trace of Precipitation, MM = Missing Value Source: NWS Daily Summary

Daily Weather History Graph

Daily Weather History Graph

Search for Another Location

Airport:

Trip Planner

Search our weather history database for the weather conditions in past years. The results will help you decide how hot, cold, wet, or windy it might be!

Date:

Astronomy

Jan. 18, 2014 Rise Set
Actual Time 6:44 AM PST 5:02 PM PST
Civil Twilight 6:17 AM PST 5:28 PM PST
Nautical Twilight 5:47 AM PST 5:58 PM PST
Astronomical Twilight 5:18 AM PST 6:28 PM PST
Moon 7:37 PM PST (1/18) 7:56 AM PST (1/18)
Length of Visible Light 11h 10m
Length of Day
10h 17m
Waning Gibbous, 94% of the Moon is Illuminated
Jan 18
Waning Gibbous
Jan 23
Last Quarter
Jan 30
New
Feb 6
First Quarter
Feb 14
Full

Hourly Weather History & Observations

Time (PST) Temp. Windchill Dew Point Humidity Pressure Visibility Wind Dir Wind Speed Gust Speed Precip Events Conditions
12:56 AM 51.1 °F - 10.0 °F 19% 30.09 in 10.0 mi West 9.2 mph - N/A   Clear
1:56 AM 46.0 °F 43.1 °F 10.9 °F 24% 30.10 in 10.0 mi West 5.8 mph - N/A   Clear
2:56 AM 46.0 °F 41.4 °F 10.9 °F 24% 30.09 in 10.0 mi West 9.2 mph - N/A   Clear
3:56 AM 45.0 °F 40.6 °F 10.9 °F 25% 30.09 in 10.0 mi West 8.1 mph - N/A   Clear
4:56 AM 45.0 °F 40.1 °F 14.0 °F 29% 30.10 in 10.0 mi West 9.2 mph - N/A   Clear
5:56 AM 43.0 °F 38.8 °F 10.0 °F 26% 30.11 in 10.0 mi West 6.9 mph - N/A   Scattered Clouds
6:56 AM 45.0 °F 42.6 °F 12.0 °F 26% 30.12 in 10.0 mi WSW 4.6 mph - N/A   Scattered Clouds
7:56 AM 53.1 °F - 9.0 °F 17% 30.14 in 10.0 mi SW 5.8 mph - N/A   Partly Cloudy
8:56 AM 60.1 °F - 17.1 °F 19% 30.17 in 10.0 mi West 5.8 mph - N/A   Partly Cloudy
9:56 AM 66.0 °F - 18.0 °F 16% 30.17 in 10.0 mi West 5.8 mph - N/A   Partly Cloudy
10:56 AM 73.0 °F - 16.0 °F 11% 30.16 in 10.0 mi Variable 3.5 mph - N/A   Partly Cloudy
11:56 AM 75.9 °F - 12.0 °F 9% 30.12 in 10.0 mi Calm Calm - N/A   Scattered Clouds
12:56 PM 78.1 °F - 9.0 °F 7% 30.09 in 10.0 mi North 3.5 mph - N/A   Scattered Clouds
1:56 PM 80.1 °F - 10.9 °F 7% 30.07 in 10.0 mi NNE 3.5 mph - N/A   Scattered Clouds
2:56 PM 81.0 °F - 8.1 °F 6% 30.07 in 10.0 mi Calm Calm - N/A   Scattered Clouds
3:56 PM 79.0 °F - 12.9 °F 8% 30.08 in 10.0 mi Calm Calm - N/A   Clear
4:56 PM 73.9 °F - 15.1 °F 11% 30.08 in 10.0 mi SSW 3.5 mph - N/A   Clear
5:56 PM 66.0 °F - 19.0 °F 17% 30.09 in 10.0 mi SSW 3.5 mph - N/A   Clear
6:56 PM 61.0 °F - 19.9 °F 21% 30.09 in 10.0 mi Calm Calm - N/A   Clear
7:56 PM 55.9 °F - 25.0 °F 30% 30.10 in 10.0 mi NE 4.6 mph - N/A   Clear
8:56 PM 53.1 °F - 23.0 °F 31% 30.11 in 10.0 mi NNW 3.5 mph - N/A   Clear
9:56 PM 50.0 °F - 25.0 °F 38% 30.12 in 8.0 mi West 4.6 mph - N/A   Clear
10:56 PM 48.9 °F - 17.1 °F 28% 30.12 in 9.0 mi West 8.1 mph - N/A   Clear
11:56 PM 50.0 °F - 18.0 °F 28% 30.12 in 7.0 mi West 6.9 mph - N/A   Clear